Kosmos-2022

operational
NORAD ID: 20024 Int'l Des: 1989-039 Owner: UNKS Country: SU Constellation: GLONASS
MEOCIRCULAR

关于 Kosmos-2022

正在加载描述...

实时位置

正在加载3D地球...

即将过境

高度历史

Altitude vs Time

uPlot chart will show altitude changes over time

两行轨道根数

1 20024U 89039A 25347.22998686 -.00000062 00000-0 00000-0 0 9997
2 20024 65.0497 317.2797 0009405 216.9589 227.9787 2.13102259284376
Epoch: Dec 13, 2025 • Age: 14 hours

当前状态

高度 19111.0 km
速度 3.96 km/s
星下点 -1.87°S, 118.07°E
发射日期 May 31, 1989
运行时间 36.5 years
类型 other

技术详情

分类 Payload
质量 1300.00 kg
干质量 1200.00 kg
总质量 1300.00 kg
长度 4.00 m
直径 1.50 m
跨度 7.80 m
形状 Cyl + Ant + 2 Pan
制造商 OAZ
平台类型 Uragan
阶段状态 In Orbit
所有者/国家 UNKS/SU

大型星座

Loading constellations...